BEIDOU-3 M7

Last updated on Wed May 15 2019 03:07:46 GMT+0000 (Coordinated Universal Time)

1 43245U 18029A 19134.09936495 -.00000100 00000-0 00000+0 0 9992 2 43245 55.2049 29.1302 0001586 329.0659 347.8202 1.86232876 7631

Satellite not in orbit

BEIDOU-3 M7